Lapse_Rate
7.1 7.2 7.1 6.9 7.2 7.2 7.3 7.2 7.2 7.2 7.1 7.1 6.9 6.7 6.7 6.4 6.1 6.4 6.2 6.4 6.1 6.2
7.5 7.3 7.1 6.8 6.9 7.0 7.1 7.2 6.9 6.8 6.9 6.9 7.0 7.0 7.0 6.6 6.2 6.2 6.2 6.0 6.2 6.6
7.7 7.2 6.8 6.8 6.7 6.7 6.9 6.9 6.7 6.5 6.7 7.0 7.0 7.0 6.6 6.3 6.0 5.9 5.8 5.6 5.6 7.0
6.9 6.7 6.6 6.8 6.8 6.7 6.6 6.8 6.6 6.5 6.7 6.7 6.8 6.8 6.4 6.2 6.2 5.9 6.1 6.1 6.1 6.8
6.2 6.4 6.7 6.7 6.6 6.7 6.5 6.5 6.6 6.3 6.2 6.4 6.5 6.4 6.3 6.2 6.0 6.1 6.0 6.6 6.4 6.9
6.0 6.3 6.4 6.7 6.6 6.6 6.4 6.3 6.5 6.2 6.0 6.1 6.2 6.2 6.1 6.0 5.7 5.8 6.1 6.6 6.9 6.6
5.8 6.0 6.3 6.3 6.5 6.4 6.2 6.0 6.2 6.1 5.7 5.9 6.0 6.0 6.1 6.0 5.6 5.8 6.2 6.5 6.6 6.4
5.7 5.9 5.8 5.8 5.9 5.9 5.7 5.8 5.9 5.5 5.1 5.4 5.6 5.9 5.7 5.6 5.4 5.7 5.9 5.7 6.1 6.2
5.3 5.3 5.2 5.1 4.6 4.4 4.6 5.2 5.1 4.8 5.2 5.4 5.6 5.6 5.7 5.7 5.4 5.6 5.5 5.7 6.0 5.4
4.8 4.8 4.8 4.6 4.5 4.6 4.8 4.8 4.6 5.0 5.2 5.5 5.5 5.4 5.6 5.6 5.3 5.6 5.6 5.6 5.8 6.1
4.7 4.6 4.5 4.4 4.4 4.4 4.6 4.6 4.7 4.7 4.8 5.3 5.1 5.1 5.2 5.5 5.4 5.5 5.5 5.9 6.2 6.1
5.5 5.3 5.3 5.3 5.2 4.7 4.6 4.7 4.6 4.6 4.8 4.7 4.7 4.9 5.3 5.2 5.2 5.2 5.5 5.2 5.6 5.9
5.7 5.7 5.8 6.0 6.1 5.8 5.4 5.0 4.7 4.7 4.6 4.5 4.5 4.4 4.5 4.8 5.0 5.0 5.3 5.3 5.4 5.5
5.8 5.9 6.3 6.2 5.8 6.3 5.9 5.3 5.0 4.8 4.6 4.5 4.3 4.4 4.4 4.4 4.4 4.5 4.6 5.0 5.2 5.6
Wind_Speed
12 8 9 11 10 10 10 10 15 14 14 16 16 15 14 11 11 12 12 15 12 12
11 12 11 14 12 10 12 11 15 16 17 17 15 15 15 10 11 13 14 16 19 15
13 12 12 11 13 14 14 15 16 17 17 17 17 15 14 12 12 13 12 12 16 15
14 14 12 11 13 14 15 15 15 17 17 16 17 14 12 14 13 12 11 11 12 17
14 14 14 13 14 15 15 15 16 16 16 15 16 17 13 15 13 11 14 14 16 18
14 15 16 16 14 15 15 15 16 16 16 16 15 15 15 9 7 9 13 16 17 18
15 14 15 14 15 16 15 15 16 16 16 16 15 16 16 13 4 5 13 15 17 15
13 13 14 14 13 14 15 15 16 16 16 16 13 12 17 11 9 9 17 5 4 8
14 13 13 14 15 15 16 16 16 17 17 17 13 24 25 13 12 15 16 3 6 6
12 13 14 13 14 15 15 16 16 16 16 18 19 30 26 22 15 15 16 17 11 8
14 13 13 13 13 15 12 14 14 16 17 17 19 32 30 23 15 16 19 18 15 12
13 13 13 14 14 12 13 13 13 14 17 17 17 30 31 21 13 14 15 15 16 17
11 13 13 12 12 11 10 11 11 14 16 23 17 29 31 21 11 15 10 12 15 27
10 12 12 11 11 12 11 11 13 13 14 17 19 20 30 30 14 10 10 11 11 11
Wind_Direction
348 337 332 325 320 309 306 308 306 299 297 290 272 270 265 239 208 196 209 202 203 218
345 343 333 329 322 317 313 315 310 311 301 291 273 258 258 243 218 207 212 217 216 210
350 344 336 334 329 324 325 323 324 318 309 302 295 251 246 246 235 221 220 217 215 211
354 350 345 345 339 336 330 334 328 323 316 314 307 253 230 231 226 218 219 208 213 212
358 360 358 353 347 346 342 338 335 333 329 328 331 325 239 228 221 212 213 209 211 220
6 6 5 0 357 358 351 347 347 345 342 341 345 341 335 282 231 221 219 214 210 212
11 6 10 3 7 6 1 358 355 355 349 347 350 350 335 317 287 277 232 217 213 212
2 6 5 3 6 8 9 9 6 358 356 359 359 356 343 308 333 338 266 193 179 176
10 7 4 12 16 9 9 9 8 8 6 7 6 356 9 8 43 40 1 70 97 53
7 7 8 10 10 12 12 11 8 5 5 16 13 11 13 24 48 50 33 20 14 35
11 9 6 9 18 14 12 11 9 11 10 16 20 18 16 18 37 49 43 33 16 23
17 14 10 12 9 18 15 8 7 10 11 15 16 21 23 25 28 38 48 45 26 31
18 22 17 13 6 12 27 13 5 11 14 11 13 18 26 27 27 34 33 37 29 39
21 25 18 16 18 18 21 19 16 13 11 13 13 15 27 30 29 26 28 32 32 33